Regional Weather Roundup
Issued by NWS

Home | Current Version | Previous Version | Graphics & Text | Print | Product List | Glossary On
Versions: 1 2 3 4 5 6 7 8 9 10 11 12 13 14 15 16 17 18 19 20 21 22 23 24 25 26 27 28 29 30 31 32 33 34 35 36 37 38 39 40 41 42 43 44 45 46 47 48 49 50
000
ASUS43 KOAX 250410
RWRNE

WEATHER ROUNDUP FOR NEBRASKA
NATIONAL WEATHER SERVICE OMAHA NE
1000 PM CST FRI NOV 24 2017

NOTES: SATELLITE DATA IS BEING USED TO AUGMENT CLOUD COVER ABOVE
       12000 FEET.
       "FAIR" INDICATES FEW OR NO CLOUDS BELOW 12,000 FEET WITH NO
       SIGNIFICANT WEATHER AND/OR OBSTRUCTIONS TO VISIBILITY.


NEZ001>004-019>022-054>056-250500-
NEBRASKA PANHANDLE

CITY           SKY/WX    TMP DP  RH WIND       PRES   REMARKS
SCOTTSBLUFF    CLEAR     30  20  66 N7        30.05R WCI  23
ALLIANCE       PTCLDY    27  24  89 W6        30.04R WCI  20
CHADRON        CLEAR     29  25  85 SW3       30.03R
GORDON         FAIR      28  22  76 W6        30.02R WCI  22
KIMBALL        CLEAR     30  25  81 W8        30.06R WCI  22
SIDNEY         CLEAR     31  24  75 NW12      30.05R WCI  22
$$

NEZ057>060-069>072-079>082-250500-
SOUTHWEST NEBRASKA

CITY           SKY/WX    TMP DP  RH WIND       PRES   REMARKS
NORTH PLATTE   CLEAR     34  26  72 W6        30.03R WCI  29
IMPERIAL       CLEAR     33  27  78 NW6       30.04R WCI  28
LEXINGTON      CLEAR     35  28  74 NW7       30.02R WCI  30
MCCOOK         CLEAR     39  30  70 NW5       30.02R
OGALLALA       CLEAR     32  25  76 W6        30.05R WCI  26
$$

NEZ005>010-023>029-035>040-094-250500-
NORTH CENTRAL NEBRASKA

CITY           SKY/WX    TMP DP  RH WIND       PRES   REMARKS
VALENTINE      CLEAR     47  32  56 N18G26    29.98R
AINSWORTH      CLEAR     39  31  72 NW8       29.99R WCI  33
BROKEN BOW     CLEAR     37  27  67 CALM      30.00R
O`NEILL        CLEAR     41  32  71 NW10      29.95R
ORD            CLEAR     37  28  70 W5        29.97R WCI  33
THEDFORD       CLEAR     35  27  74 W6        30.02R WCI  30
$$

NEZ041-046>049-061>064-073>077-083>087-250500-
SOUTH CENTRAL NEBRASKA

CITY           SKY/WX    TMP DP  RH WIND       PRES   REMARKS
GRAND ISLAND   PTCLDY    39  31  72 W6        29.98R WCI  35
AURORA         PTCLDY    41  32  70 NW7       29.97R
HASTINGS       CLOUDY    41  29  62 W6        29.99R
HEBRON         CLOUDY    46  34  62 NW5       29.98R
HOLDREGE       CLEAR     39  30  68 N5        30.00R
KEARNEY        CLEAR     43  29  57 W6        30.01R
YORK           MOCLDY    39  32  75 W7        29.97R WCI  34
$$

NEZ011>018-030>034-042>045-250500-
NORTHEAST NEBRASKA

CITY           SKY/WX    TMP DP  RH WIND       PRES   REMARKS
NORFOLK        CLEAR     41  34  76 W7        29.92R
ALBION         CLEAR     37  33  82 CALM      29.95R
BLAIR          CLEAR     45  35  67 NW5       29.91R
COLUMBUS       CLEAR     38  32  79 NW5       29.94  WCI  34
FREMONT        CLEAR     41  32  70 CALM      29.92R
TEKAMAH        CLEAR     40  31  70 NW9       29.90R WCI  34
WAYNE          PTCLDY    33  31  93 CALM      29.91R
$$

NEZ050>053-065>068-078-088>093-250500-
SOUTHEAST NEBRASKA

CITY           SKY/WX    TMP DP  RH WIND       PRES   REMARKS
LINCOLN        CLEAR     49  34  56 NW3       29.96R
OMAHA EPPLEY   CLEAR     43  34  70 NE3       29.91R
BEATRICE       PTCLDY    40  32  74 N6        29.96R
FALLS CITY     CLEAR     51  37  58 NW10      29.91R
NEBRASKA CITY  CLEAR     47  36  64 NW10      29.92R
PLATTSMOUTH    CLEAR     46  36  68 W5        29.91R
$$

NEZ044-045-051>053-067-250500-
OMAHA AREA

CITY           SKY/WX    TMP DP  RH WIND       PRES   REMARKS
OMAHA EPPLEY   CLEAR     43  34  70 NE3       29.91R
BLAIR          CLEAR     45  35  67 NW5       29.91R
FREMONT        CLEAR     41  32  70 CALM      29.92R
MILLARD        CLEAR     50  37  59 NW8       29.91R
OFFUTT AFB     CLEAR     49  35  57 NW9       29.90R
PLATTSMOUTH    CLEAR     46  36  68 W5        29.91R
WAHOO          FAIR      42  33  69 NW7       29.92R
$$




USA.gov is the U.S. government's official web portal to all federal, state and local government web resources and services.